• în România
  • Lista ţărilor
  • Pe 7 zile
  • Temperatura apei
  • Hartă satelitară
  • Meteo pe hartă
  • Widget-uri
  • user-avatar
    Intrare

    Meteo pe oră la Miynala

    Astăzi, 18 Octombrie, Joi

    Timp Temperatura Precipitaţii Vânt Presiune Umiditate
    00:00 +9°C° 0 mm 5 m/s 759 mmHg 93%
    01:00 +9°C° 0 mm 5 m/s 759 mmHg 93%
    02:00 +10°C° 0 mm 5 m/s 758 mmHg 93%
    03:00 +10°C° 0 mm 5 m/s 758 mmHg 93%
    04:00 +11°C° 0 mm 4 m/s 758 mmHg 93%
    05:00 +11°C° 0 mm 4 m/s 757 mmHg 93%
    06:00 +11°C° 0.1 mm 4 m/s 757 mmHg 94%
    07:00 +11°C° 0.1 mm 4 m/s 757 mmHg 94%
    08:00 +10°C° 0 mm 5 m/s 757 mmHg 94%
    09:00 +12°C° 0 mm 5 m/s 757 mmHg 92%
    10:00 +12°C° 0 mm 5 m/s 756 mmHg 90%
    11:00 +13°C° 0 mm 4 m/s 756 mmHg 88%
    12:00 +13°C° 0.1 mm 4 m/s 756 mmHg 88%
    13:00 +13°C° 0.1 mm 5 m/s 756 mmHg 87%
    14:00 +13°C° 0.1 mm 5 m/s 755 mmHg 87%
    15:00 +13°C° 0.7 mm 5 m/s 755 mmHg 88%
    16:00 +12°C° 0.7 mm 5 m/s 754 mmHg 90%
    17:00 +12°C° 0.7 mm 5 m/s 754 mmHg 91%
    18:00 +11°C° 0.8 mm 6 m/s 754 mmHg 91%
    19:00 +11°C° 0.8 mm 6 m/s 754 mmHg 90%
    20:00 +10°C° 0.8 mm 6 m/s 754 mmHg 89%
    21:00 +10°C° 0.1 mm 6 m/s 754 mmHg 87%
    22:00 +9°C° 0.1 mm 6 m/s 755 mmHg 85%
    23:00 +8°C° 0.1 mm 6 m/s 755 mmHg 84%

    Mâine, 19 Octombrie, Vineri

    Timp Temperatura Precipitaţii Vânt Presiune Umiditate
    00:00 +8°C° 0 mm 6 m/s 755 mmHg 83%
    01:00 +7°C° 0 mm 6 m/s 756 mmHg 83%
    02:00 +6°C° 0 mm 5 m/s 756 mmHg 82%
    03:00 +6°C° 0 mm 5 m/s 756 mmHg 83%
    04:00 +6°C° 0 mm 5 m/s 757 mmHg 83%
    05:00 +5°C° 0 mm 5 m/s 757 mmHg 84%
    06:00 +5°C° 0 mm 5 m/s 757 mmHg 84%
    07:00 +4°C° 0 mm 6 m/s 757 mmHg 84%
    08:00 +4°C° 0 mm 6 m/s 757 mmHg 84%
    09:00 +5°C° 0 mm 6 m/s 757 mmHg 81%
    10:00 +5°C° 0 mm 6 m/s 757 mmHg 78%
    11:00 +7°C° 0 mm 6 m/s 758 mmHg 75%
    12:00 +7°C° 0 mm 6 m/s 758 mmHg 75%
    13:00 +7°C° 0 mm 6 m/s 758 mmHg 74%
    14:00 +8°C° 0 mm 6 m/s 758 mmHg 73%
    15:00 +7°C° 0 mm 6 m/s 758 mmHg 74%
    16:00 +7°C° 0 mm 6 m/s 758 mmHg 75%
    17:00 +7°C° 0 mm 6 m/s 758 mmHg 76%
    18:00 +7°C° 0 mm 6 m/s 758 mmHg 77%
    19:00 +6°C° 0 mm 5 m/s 758 mmHg 78%
    20:00 +6°C° 0 mm 5 m/s 758 mmHg 79%
    21:00 +6°C° 0 mm 5 m/s 759 mmHg 81%
    22:00 +5°C° 0 mm 5 m/s 759 mmHg 82%
    23:00 +5°C° 0 mm 5 m/s 759 mmHg 83%

    Poimâine, 20 Octombrie, Sâmbătă

    Timp Temperatura Precipitaţii Vânt Presiune Umiditate
    00:00 +5°C° 0 mm 4 m/s 759 mmHg 85%
    01:00 +5°C° 0 mm 4 m/s 759 mmHg 86%
    02:00 +4°C° 0 mm 4 m/s 759 mmHg 87%
    03:00 +4°C° 0 mm 4 m/s 759 mmHg 88%
    04:00 +4°C° 0 mm 4 m/s 759 mmHg 89%
    05:00 +4°C° 0 mm 3 m/s 759 mmHg 90%
    06:00 +4°C° 0 mm 3 m/s 760 mmHg 90%
    07:00 +4°C° 0 mm 3 m/s 760 mmHg 90%
    08:00 +4°C° 0 mm 3 m/s 760 mmHg 90%
    09:00 +5°C° 0 mm 3 m/s 760 mmHg 88%
    10:00 +6°C° 0 mm 2 m/s 760 mmHg 86%
    11:00 +7°C° 0 mm 2 m/s 760 mmHg 83%
    12:00 +7°C° 0.1 mm 2 m/s 760 mmHg 83%
    13:00 +7°C° 0.1 mm 2 m/s 760 mmHg 82%
    14:00 +8°C° 0.1 mm 2 m/s 760 mmHg 82%
    15:00 +7°C° 0.1 mm 2 m/s 760 mmHg 85%
    16:00 +8°C° 0.1 mm 1 m/s 760 mmHg 87%
    17:00 +8°C° 0.1 mm 1 m/s 760 mmHg 90%
    18:00 +7°C° 0 mm 1 m/s 760 mmHg 91%
    19:00 +7°C° 0 mm 1 m/s 760 mmHg 92%
    20:00 +6°C° 0 mm 0 m/s 760 mmHg 93%
    21:00 +7°C° 0 mm 1 m/s 760 mmHg 94%
    22:00 +7°C° 0 mm 1 m/s 761 mmHg 94%
    23:00 +7°C° 0 mm 1 m/s 761 mmHg 94%

    21 Octombrie, Duminică

    Timp Temperatura Precipitaţii Vânt Presiune Umiditate
    00:00 +6°C° 0 mm 1 m/s 761 mmHg 94%
    01:00 +6°C° 0 mm 1 m/s 761 mmHg 95%
    02:00 +6°C° 0 mm 1 m/s 761 mmHg 95%
    03:00 +5°C° 0 mm 1 m/s 761 mmHg 95%
    04:00 +5°C° 0 mm 1 m/s 761 mmHg 95%
    05:00 +5°C° 0 mm 1 m/s 762 mmHg 95%
    06:00 +5°C° 0 mm 1 m/s 762 mmHg 95%
    07:00 +5°C° 0 mm 1 m/s 762 mmHg 95%
    08:00 +5°C° 0 mm 1 m/s 762 mmHg 95%
    09:00 +6°C° 0 mm 1 m/s 762 mmHg 91%
    10:00 +7°C° 0 mm 1 m/s 762 mmHg 87%
    11:00 +7°C° 0 mm 2 m/s 762 mmHg 83%
    12:00 +8°C° 0 mm 2 m/s 762 mmHg 82%
    13:00 +8°C° 0 mm 3 m/s 761 mmHg 80%
    14:00 +8°C° 0 mm 4 m/s 761 mmHg 79%
    15:00 +7°C° 0 mm 4 m/s 761 mmHg 80%
    16:00 +7°C° 0 mm 5 m/s 761 mmHg 82%
    17:00 +7°C° 0 mm 5 m/s 760 mmHg 83%
    18:00 +7°C° 0 mm 6 m/s 760 mmHg 84%
    19:00 +7°C° 0 mm 6 m/s 759 mmHg 84%
    20:00 +7°C° 0 mm 6 m/s 759 mmHg 85%
    21:00 +7°C° 0.2 mm 6 m/s 758 mmHg 85%
    22:00 +6°C° 0.2 mm 7 m/s 757 mmHg 85%
    23:00 +6°C° 0.2 mm 7 m/s 757 mmHg 86%

    22 Octombrie, Luni

    Timp Temperatura Precipitaţii Vânt Presiune Umiditate
    00:00 +6°C° 0.6 mm 8 m/s 756 mmHg 84%
    01:00 +6°C° 0.6 mm 8 m/s 754 mmHg 83%
    02:00 +6°C° 0.6 mm 9 m/s 753 mmHg 82%
    03:00 +6°C° 0.6 mm 10 m/s 752 mmHg 82%
    04:00 +7°C° 0.6 mm 10 m/s 750 mmHg 83%
    05:00 +7°C° 0.6 mm 11 m/s 749 mmHg 83%
    06:00 +8°C° 0.7 mm 11 m/s 748 mmHg 84%
    07:00 +8°C° 0.7 mm 11 m/s 747 mmHg 84%
    08:00 +9°C° 0.7 mm 11 m/s 746 mmHg 85%
    09:00 +9°C° 0.5 mm 11 m/s 745 mmHg 80%
    10:00 +9°C° 0.5 mm 11 m/s 745 mmHg 75%
    11:00 +11°C° 0.5 mm 10 m/s 744 mmHg 69%
    12:00 +9°C° 0.1 mm 10 m/s 745 mmHg 70%
    13:00 +8°C° 0.1 mm 9 m/s 745 mmHg 70%
    14:00 +7°C° 0.1 mm 9 m/s 745 mmHg 71%
    15:00 +6°C° 0.2 mm 8 m/s 746 mmHg 74%
    16:00 +6°C° 0.2 mm 7 m/s 747 mmHg 77%
    17:00 +5°C° 0.2 mm 6 m/s 747 mmHg 80%
    18:00 +5°C° 1 mm 7 m/s 748 mmHg 79%
    19:00 +4°C° 1 mm 7 m/s 748 mmHg 78%
    20:00 +4°C° 1 mm 8 m/s 749 mmHg 77%
    21:00 +4°C° 0.2 mm 8 m/s 749 mmHg 76%
    22:00 +3°C° 0.2 mm 7 m/s 749 mmHg 76%
    23:00 +3°C° 0.2 mm 7 m/s 749 mmHg 75%

    23 Octombrie, Marţi

    Timp Temperatura Precipitaţii Vânt Presiune Umiditate
    00:00 +3°C° 0 mm 6 m/s 750 mmHg 77%
    01:00 +3°C° 0 mm 6 m/s 750 mmHg 78%
    02:00 +2°C° 0 mm 5 m/s 750 mmHg 80%
    03:00 +2°C° 0 mm 5 m/s 750 mmHg 80%
    04:00 +2°C° 0 mm 5 m/s 750 mmHg 81%
    05:00 +3°C° 0 mm 4 m/s 750 mmHg 82%
    06:00 +3°C° 0 mm 4 m/s 750 mmHg 83%
    07:00 +1°C° 0 mm 4 m/s 751 mmHg 83%
    08:00 +1°C° 0 mm 4 m/s 751 mmHg 84%
    09:00 +3°C° 0 mm 4 m/s 751 mmHg 81%
    10:00 +4°C° 0 mm 4 m/s 751 mmHg 77%
    11:00 +5°C° 0 mm 3 m/s 751 mmHg 74%
    12:00 +5°C° 0 mm 4 m/s 751 mmHg 73%
    13:00 +5°C° 0 mm 4 m/s 751 mmHg 71%
    14:00 +5°C° 0 mm 4 m/s 751 mmHg 70%
    15:00 +5°C° 0 mm 3 m/s 751 mmHg 74%
    16:00 +4°C° 0 mm 3 m/s 751 mmHg 77%
    17:00 +3°C° 0 mm 3 m/s 751 mmHg 80%
    18:00 +3°C° 0 mm 3 m/s 751 mmHg 81%
    19:00 +3°C° 0 mm 3 m/s 751 mmHg 81%
    20:00 +3°C° 0 mm 3 m/s 751 mmHg 81%
    21:00 +3°C° 0.1 mm 3 m/s 751 mmHg 81%
    22:00 +3°C° 0.1 mm 3 m/s 751 mmHg 81%
    23:00 +3°C° 0.1 mm 3 m/s 751 mmHg 81%
    Arată mai mult